Location: T�bingen+AIT
(48.5342°N, 9.0700°E)
Time: 22:37:22
(UTC+01:00)

Cosmos 1980 Rocket - Pass Details

Date: 14 September 2017
Orbit: 828 x 851 km, 71.0° (Epoch: 18 November)

Event Time Altitude Azimuth Distance (km) Brightness Sun altitude
Rises 23:36:47 0° 335° (NNW) 3,389 6.4 -33.8°
Reaches altitude 10° 23:39:24 10° 343° (NNW) 2,455 5.4 -34.0°
Enters shadow 23:43:07 32° 17° (NNE) 1,395 3.6 -34.3°
